Regional Weather Roundup
Issued by NWS Goodland, KS

Home | Current Version | Previous Version | Text Only | Print | Product List | Glossary Off
Versions: 1 2 3 4 5 6 7 8 9 10 11 12 13 14 15 16 17 18 19 20 21 22 23 24 25 26 27 28 29 30 31 32 33 34 35 36 37 38 39 40 41 42 43 44 45 46 47 48 49 50

304
ASUS43 KGLD 240359
RWRGLD

GOODLAND FORECAST AREA HOURLY WEATHER ROUNDUP
NATIONAL WEATHER SERVICE GOODLAND KS
900 PM MST THU NOV 23 2017

...OFFICIAL OBSERVATIONS...

CITY           SKY/WX    TMP DP  RH WIND       PRES   REMARKS
GOODLAND KS    CLOUDY    55  35  47 SW16      29.88F
HILL CITY KS   PTCLDY    56  41  57 W8        29.84F
IMPERIAL NEB   CLEAR     47  32  56 W8        29.83F
MCCOOK NEB     CLEAR     56  39  53 SW16      29.81F
AKRON CO       CLOUDY    52  26  36 SW13      29.91F
BURLINGTON CO  CLOUDY    51  36  56 SW13      29.92F
LIMON CO       CLOUDY    40  30  67 N3        29.98F
$$

...UNOFFICIAL OBSERVATIONS...

CITY           SKY/WX    TMP DP  RH WIND       PRES   REMARKS
LENORA KS        N/A     56  32  40 SW10        N/A
NORTON KS      CLEAR     48  36  61 SW9       29.81
SHARON SPRINGS   N/A     47  35  64 SW12        N/A
KIT CARSON CO    N/A     42  30  62 CALM        N/A
YUMA CO        FAIR      43  32  65 W8        29.89F
$$




USA.gov is the U.S. government's official web portal to all federal, state and local government web resources and services.